[[{"header":{"parameterUnit":"m.s-1","parameterCategory":1,"la1":30.2991,"la2":30.254,"lo1":-89.0895,"lo2":-89.0444,"dy":0.0017,"dx":0.0017,"nx":28,"ny":28,"refTime":"2025-09-08T09:00:00:Z","depth":0,"parameterNumber":2,"parameterNumberName":"U-component_of_WINDS"},"data":[0,0,0,0,0,0,0,0,0,0,0,0,0,0,0,0,0,0,0,0,0,0,0,0,0,0,0,0,0,0,0,0,0,0,0,0,0,0,0,0,0,0,0,0,0,0,0,0,0,0,0,0,0,0,0,0,0,0,-1.3948,-1.3948,0,-1.3916,-1.3915,-1.3915,-1.3867,-1.3866,-1.3865,-1.3864,-1.3832,-1.3832,-1.3832,0,0,0,0,0,0,0,0,0,0,0,0,0,-1.3969,-1.3969,-1.3948,-1.3948,-1.3947,-1.3916,-1.3915,-1.3915,-1.3867,-1.3866,-1.3865,-1.3864,-1.3832,-1.3832,-1.3832,0,0,0,0,0,0,0,0,0,0,0,0,0,-1.3951,-1.3969,-1.3948,-1.392,-1.3917,-1.3916,-1.3915,-1.3915,-1.3867,-1.3866,-1.3865,-1.3864,-1.3832,-1.3832,-1.3832,-1.3857,0,0,-1.3832,-1.3831,0,0,0,0,0,0,0,0,-1.3952,-1.395,-1.3924,-1.3922,-1.3918,-1.3894,-1.3911,-1.3895,-1.3868,-1.3886,-1.3864,-1.3863,-1.3854,-1.3852,-1.3848,-1.3855,-1.3854,-1.3832,-1.3831,-1.3831,-1.3831,0,0,0,0,0,0,0,-1.3953,-1.3951,-1.3935,-1.3924,-1.392,-1.3909,-1.3905,-1.3908,-1.3877,-1.3884,-1.3881,-1.3878,-1.3852,-1.3849,-1.3847,-1.3853,-1.3832,-1.3831,-1.3831,-1.3831,-1.3878,-1.388,0,0,0,0,0,0,-1.3958,-1.3952,-1.3936,-1.3934,-1.3932,-1.3909,-1.3905,-1.3903,-1.3877,-1.3872,-1.3879,-1.3875,-1.385,-1.3848,-1.3846,-1.3874,-1.3831,-1.3831,-1.3831,-1.3877,-1.3879,-1.388,0,0,0,0,0,0,-1.3959,-1.3957,-1.3938,-1.3942,-1.3939,-1.391,-1.3909,-1.3903,-1.39,-1.3873,-1.3867,-1.3881,-1.3848,-1.3846,-1.3854,-1.3872,-1.3831,-1.3831,-1.3875,-1.3878,-1.3879,-1.3929,0,0,0,0,0,0,-1.396,-1.3958,-1.3967,-1.3943,-1.3939,-1.3947,-1.391,-1.3903,-1.39,-1.3895,-1.3874,-1.3869,-1.3847,-1.3855,-1.3854,-1.3871,-1.3831,-1.3874,-1.3876,-1.3879,-1.3925,-1.3932,-1.3938,0,0,0,0,0,-1.3961,-1.3982,-1.3968,-1.3966,-1.395,-1.3948,-1.3945,-1.392,-1.3901,-1.391,-1.3893,-1.387,-1.387,-1.3856,-1.3855,-1.3872,-1.3873,-1.3876,-1.3879,-1.3923,-1.3931,-1.3938,0,0,0,0,0,0,-1.401,-1.3979,-1.3962,-1.3977,-1.3965,-1.394,-1.395,-1.3929,-1.3923,-1.3919,-1.3888,-1.3883,-1.3895,-1.3884,-1.3869,-1.3894,-1.3868,-1.387,-1.3901,-1.3909,-1.3915,-1.3918,-1.3831,0,0,0,0,0,-1.4022,-1.4023,-1.3996,-1.4011,-1.4006,-1.3979,-1.3978,-1.3959,-1.3946,-1.3941,-1.3924,-1.3912,-1.3909,-1.3908,-1.3904,-1.3923,-1.3918,-1.3934,-1.394,-1.3946,-1.3949,-1.3958,-1.3965,-1.389,-1.389,-1.389,0,0,-1.4048,-1.4031,-1.4034,-1.4021,-1.401,-1.4011,-1.3976,-1.3979,-1.398,-1.3941,-1.3948,-1.3935,-1.392,-1.3933,-1.3939,-1.3925,-1.3968,-1.3949,-1.3954,-1.3954,-1.3962,-1.3969,-1.3976,-1.3892,-1.3891,-1.3891,0,0,-1.4097,-1.4084,-1.4095,-1.4085,-1.4068,-1.405,-1.4052,-1.403,-1.402,-1.4026,-1.3997,-1.3997,-1.3993,-1.3984,-1.3978,-1.4022,-1.4001,-1.4022,-1.4055,-1.4064,-1.407,-1.4075,-1.4092,-1.4098,-1.4025,-1.4025,-1.4025,0,-1.4131,-1.4132,-1.4104,-1.4109,-1.4104,-1.4068,-1.408,-1.4071,-1.4054,-1.4052,-1.4036,-1.403,-1.4017,-1.4028,-1.4039,-1.4036,-1.4038,-1.4025,-1.4072,-1.4076,-1.4081,-1.4096,-1.4102,-1.4028,-1.4027,-1.4027,-1.4027,0,-1.4176,-1.4177,-1.4188,-1.4173,-1.4169,-1.4178,-1.415,-1.415,-1.4131,-1.4115,-1.4121,-1.4104,-1.4097,-1.4097,-1.4079,-1.4106,-1.4098,-1.4077,-1.405,-1.4091,-1.4105,-1.4111,-1.4032,-1.4031,-1.403,-1.4029,0,0,-1.4256,-1.4223,-1.4228,-1.422,-1.4199,-1.42,-1.4206,-1.4198,-1.4199,-1.4188,-1.4193,-1.419,-1.4171,-1.4165,-1.4145,-1.4153,-1.4189,-1.4131,-1.4131,-1.4143,-1.4218,-1.4235,-1.4242,-1.4174,-1.4175,-1.4176,-1.422,0,-1.43,-1.431,-1.4284,-1.43,-1.4301,-1.4267,-1.4272,-1.426,-1.4244,-1.4243,-1.4226,-1.4224,-1.4199,-1.4195,-1.4201,-1.4184,-1.4204,-1.418,-1.418,-1.418,-1.4186,-1.4249,-1.4266,-1.4308,-1.4225,-1.4226,-1.4226,0,-1.4354,-1.4346,-1.4362,-1.434,-1.4339,-1.4345,-1.4335,-1.4334,-1.4319,-1.4307,-1.43,-1.4277,-1.4282,-1.4255,-1.4261,-1.4246,-1.4244,-1.4235,-1.4236,-1.4236,-1.4207,-1.4251,-1.4321,-1.4328,-1.4234,-1.4234,-1.4233,0,-1.4412,-1.4404,-1.4413,-1.4408,-1.4381,-1.4386,-1.4375,-1.4359,-1.4356,-1.4347,-1.4345,-1.4337,-1.4333,-1.4328,-1.4303,-1.4286,-1.4313,-1.4284,-1.4304,-1.4305,-1.4312,-1.4312,-1.4383,-1.4309,-1.4309,-1.4309,-1.4309,0,-1.4465,-1.4477,-1.4439,-1.4444,-1.4456,-1.4426,-1.4438,-1.4424,-1.441,-1.4412,-1.4381,-1.4384,-1.4351,-1.435,-1.4331,-1.434,-1.4338,-1.4329,-1.4324,-1.4332,-1.4333,-1.4331,-1.4328,-1.4311,-1.431,-1.431,-1.431,0,-1.4532,-1.4507,-1.4514,-1.4488,-1.4482,-1.4492,-1.447,-1.4474,-1.4456,-1.4459,-1.4458,-1.443,-1.4428,-1.4402,-1.4394,-1.4381,-1.4398,-1.4386,-1.4403,-1.44,-1.4421,-1.442,-1.4494,-1.4503,-1.4423,-1.4424,-1.4424,0,-1.4568,-1.4576,-1.4551,-1.455,-1.4541,-1.454,-1.4536,-1.4506,-1.4504,-1.4487,-1.4493,-1.4488,-1.4483,-1.448,-1.4459,-1.4453,-1.4442,-1.4468,-1.4441,-1.4449,-1.4443,-1.4443,-1.4444,-1.4474,-1.4475,-1.4476,-1.4477,0,-1.4635,-1.4622,-1.4618,-1.461,-1.4606,-1.4598,-1.4588,-1.4589,-1.4556,-1.4555,-1.4552,-1.4547,-1.4539,-1.4534,-1.4524,-1.4513,-1.449,-1.4486,-1.449,-1.4499,-1.4509,-1.4505,-1.442,-1.4484,-1.4484,-1.4483,-1.4483,-1.4482,-1.4689,-1.4694,-1.4677,-1.4674,-1.4663,-1.4654,-1.4657,-1.4639,-1.4635,-1.4626,-1.4608,-1.4608,-1.4592,-1.4576,-1.4567,-1.4566,-1.4552,-1.4559,-1.456,-1.4563,-1.4568,-1.4508,-1.4564,-1.4564,-1.4564,-1.4563,-1.4563,0,-1.4755,-1.4742,-1.4739,-1.4726,-1.4723,-1.4701,-1.4688,-1.4687,-1.4687,-1.4674,-1.4669,-1.4666,-1.4661,-1.4639,-1.4632,-1.4636,-1.4625,-1.4635,-1.4635,-1.4633,-1.458,-1.4577,-1.4644,-1.4644,-1.4644,-1.4644,-1.4644,-1.4644,-1.479,-1.4798,-1.4783,-1.4785,-1.4772,-1.4771,-1.4766,-1.4758,-1.4748,-1.4745,-1.4741,-1.4726,-1.471,-1.4701,-1.4696,-1.469,-1.4689,-1.4703,-1.4693,-1.4644,-1.4637,-1.4629,-1.4627,-1.4702,-1.4703,-1.4746,-1.4747,-1.4747]},{"header":{"parameterUnit":"m.s-1","parameterCategory":1,"la1":30.2991,"la2":30.254,"lo1":-89.0895,"lo2":-89.0444,"dy":0.0017,"dx":0.0017,"nx":28,"ny":28,"refTime":"2025-09-08T09:00:00:Z","depth":0,"parameterNumber":3,"parameterNumberName":"V-component_of_WINDS"},"data":[0,0,0,0,0,0,0,0,0,0,0,0,0,0,0,0,0,0,0,0,0,0,0,0,0,0,0,0,0,0,0,0,0,0,0,0,0,0,0,0,0,0,0,0,0,0,0,0,0,0,0,0,0,0,0,0,0,0,-3.9069,-3.9069,0,-3.9092,-3.9092,-3.9092,-3.9067,-3.9066,-3.9065,-3.9065,-3.9085,-3.9087,-3.9088,0,0,0,0,0,0,0,0,0,0,0,0,0,-3.9,-3.9002,-3.9069,-3.9069,-3.9069,-3.9092,-3.9092,-3.9092,-3.9067,-3.9066,-3.9065,-3.9064,-3.9085,-3.9087,-3.9088,0,0,0,0,0,0,0,0,0,0,0,0,0,-3.9027,-3.9002,-3.9068,-3.906,-3.9059,-3.9092,-3.9092,-3.9092,-3.9068,-3.9066,-3.9065,-3.9064,-3.9084,-3.9086,-3.9088,-3.913,0,0,-3.9095,-3.9096,0,0,0,0,0,0,0,0,-3.9026,-3.903,-3.9061,-3.906,-3.906,-3.9075,-3.9076,-3.9105,-3.9068,-3.9064,-3.9065,-3.9063,-3.9083,-3.9085,-3.9092,-3.9131,-3.9132,-3.9095,-3.9097,-3.9097,-3.9098,0,0,0,0,0,0,0,-3.9024,-3.9029,-3.9078,-3.9061,-3.906,-3.9054,-3.9056,-3.9081,-3.9081,-3.9065,-3.9063,-3.9066,-3.9082,-3.909,-3.9093,-3.9132,-3.9095,-3.9097,-3.9098,-3.9099,-3.9209,-3.921,0,0,0,0,0,0,-3.9024,-3.9027,-3.9077,-3.9078,-3.9039,-3.9056,-3.9059,-3.9072,-3.9081,-3.9081,-3.9067,-3.9065,-3.9087,-3.909,-3.9093,-3.9145,-3.9097,-3.9099,-3.9101,-3.9207,-3.9209,-3.9211,0,0,0,0,0,0,-3.9022,-3.9028,-3.9076,-3.9052,-3.9058,-3.9059,-3.9074,-3.9073,-3.9081,-3.9083,-3.9083,-3.9076,-3.9086,-3.909,-3.9122,-3.9145,-3.91,-3.9102,-3.9205,-3.9208,-3.921,-3.9247,0,0,0,0,0,0,-3.902,-3.9028,-3.9044,-3.9053,-3.9059,-3.9105,-3.9075,-3.9074,-3.9085,-3.9082,-3.9091,-3.9091,-3.9086,-3.9119,-3.9124,-3.9147,-3.9104,-3.9203,-3.9206,-3.9209,-3.9243,-3.925,-3.9256,0,0,0,0,0,-3.9018,-3.9052,-3.9045,-3.9051,-3.908,-3.9106,-3.911,-3.9104,-3.9087,-3.9103,-3.9105,-3.9091,-3.9141,-3.9122,-3.9128,-3.9152,-3.9202,-3.9205,-3.9209,-3.9241,-3.9249,-3.9256,0,0,0,0,0,0,-3.9045,-3.9053,-3.9045,-3.9084,-3.9095,-3.9102,-3.9122,-3.9112,-3.9127,-3.9124,-3.9115,-3.9117,-3.9151,-3.9154,-3.9133,-3.9194,-3.9169,-3.9174,-3.9191,-3.9199,-3.9205,-3.9204,-3.9106,0,0,0,0,0,-3.9055,-3.9077,-3.9083,-3.9116,-3.9122,-3.9122,-3.9133,-3.9128,-3.9138,-3.9142,-3.9146,-3.9156,-3.9174,-3.9186,-3.9203,-3.9243,-3.9246,-3.9263,-3.9269,-3.9274,-3.9279,-3.9302,-3.931,-3.9223,-3.9223,-3.9223,0,0,-3.9077,-3.9084,-3.9098,-3.9122,-3.913,-3.9152,-3.9125,-3.9149,-3.9166,-3.9145,-3.9176,-3.9179,-3.919,-3.9227,-3.9243,-3.923,-3.9303,-3.9279,-3.9283,-3.9285,-3.9307,-3.9315,-3.9322,-3.9225,-3.9225,-3.9224,0,0,-3.9128,-3.9135,-3.9165,-3.9174,-3.9187,-3.9187,-3.9194,-3.9203,-3.9205,-3.9236,-3.9222,-3.924,-3.9272,-3.9281,-3.9289,-3.9346,-3.9334,-3.9351,-3.9384,-3.9407,-3.9414,-3.942,-3.9442,-3.9449,-3.9355,-3.9355,-3.9356,0,-3.9153,-3.9187,-3.9181,-3.9208,-3.9219,-3.9203,-3.9233,-3.9241,-3.9258,-3.9266,-3.9252,-3.9293,-3.9298,-3.9338,-3.9352,-3.9359,-3.9367,-3.9351,-3.9413,-3.9419,-3.9425,-3.9446,-3.9454,-3.9358,-3.9357,-3.9357,-3.9357,0,-3.9219,-3.9242,-3.9265,-3.9284,-3.9298,-3.9325,-3.9324,-3.9338,-3.9331,-3.9333,-3.9365,-3.9371,-3.939,-3.9399,-3.9392,-3.9438,-3.943,-3.9415,-3.9389,-3.9436,-3.9455,-3.9463,-3.9361,-3.936,-3.9359,-3.9359,0,0,-3.9287,-3.9304,-3.9313,-3.9322,-3.9336,-3.9354,-3.9381,-3.9401,-3.9414,-3.9426,-3.945,-3.9477,-3.9464,-3.9474,-3.9468,-3.9488,-3.9534,-3.947,-3.947,-3.9483,-3.9587,-3.96,-3.961,-3.9526,-3.9527,-3.9528,-3.9587,0,-3.9341,-3.939,-3.9386,-3.9433,-3.9455,-3.9441,-3.9465,-3.9475,-3.9477,-3.9496,-3.9497,-3.9518,-3.9497,-3.9504,-3.9523,-3.9525,-3.9555,-3.952,-3.9548,-3.9549,-3.9548,-3.9619,-3.9633,-3.9688,-3.9594,-3.9596,-3.9597,0,-3.941,-3.9427,-3.9477,-3.9489,-3.9498,-3.952,-3.9539,-3.9557,-3.9569,-3.9569,-3.9581,-3.9572,-3.9599,-3.9572,-3.9611,-3.9587,-3.9598,-3.9601,-3.9603,-3.9606,-3.9577,-3.9627,-3.9705,-3.9714,-3.9608,-3.9607,-3.9606,0,-3.9458,-3.9493,-3.9528,-3.9536,-3.955,-3.9566,-3.9573,-3.9583,-3.9596,-3.9612,-3.9621,-3.9639,-3.9649,-3.9663,-3.966,-3.964,-3.9699,-3.9672,-3.97,-3.9701,-3.9715,-3.9714,-3.9798,-3.9719,-3.9719,-3.9719,-3.9718,0,-3.9519,-3.955,-3.955,-3.9571,-3.9606,-3.9601,-3.9635,-3.9639,-3.9649,-3.9671,-3.9658,-3.9679,-3.9672,-3.9692,-3.9689,-3.9722,-3.9726,-3.9727,-3.9726,-3.973,-3.973,-3.9738,-3.9735,-3.9721,-3.972,-3.972,-3.972,0,-3.9579,-3.958,-3.9617,-3.9628,-3.9632,-3.9657,-3.9667,-3.9687,-3.9688,-3.9716,-3.9722,-3.9723,-3.9747,-3.9744,-3.9769,-3.9767,-3.9809,-3.9802,-3.9806,-3.9805,-3.9835,-3.9833,-3.9928,-3.9941,-3.9852,-3.9853,-3.9853,0,-3.9619,-3.9643,-3.9657,-3.9672,-3.9681,-3.9704,-3.9717,-3.9713,-3.9728,-3.9744,-3.9763,-3.9785,-3.9803,-3.9841,-3.9843,-3.9863,-3.9858,-3.989,-3.9861,-3.9864,-3.9861,-3.986,-3.9863,-3.9896,-3.9897,-3.9898,-3.9899,0,-3.969,-3.969,-3.9711,-3.9733,-3.975,-3.9766,-3.9781,-3.9794,-3.9791,-3.9808,-3.9833,-3.9847,-3.9874,-3.9896,-3.9915,-3.9921,-3.991,-3.9908,-3.9916,-3.992,-3.9922,-3.9924,-3.9824,-3.9906,-3.9905,-3.9905,-3.9904,-3.9904,-3.9742,-3.9764,-3.9779,-3.9803,-3.9814,-3.9829,-3.9849,-3.9854,-3.9875,-3.9898,-3.9893,-3.9921,-3.9933,-3.9958,-3.9966,-3.9987,-3.9976,-3.9987,-3.999,-3.9993,-3.9998,-3.9917,-3.999,-3.999,-3.999,-3.999,-3.999,0,-3.9815,-3.9824,-3.9846,-3.9869,-3.9889,-3.9877,-3.9893,-3.991,-3.9936,-3.9949,-3.9967,-3.9996,-4.0018,-4.0023,-4.0045,-4.0061,-4.0057,-4.0067,-4.0067,-4.0069,-4.0006,-3.9998,-4.0071,-4.0071,-4.0071,-4.007,-4.007,-4.007,-3.9855,-3.9892,-3.9894,-3.9936,-3.9944,-3.9973,-3.9984,-3.9998,-4.0008,-4.0042,-4.0061,-4.0065,-4.0075,-4.0097,-4.0117,-4.0118,-4.0127,-4.014,-4.0139,-4.0081,-4.0073,-4.0065,-4.0058,-4.0141,-4.0141,-4.02,-4.02,-4.0201]}]]